FW4844 Weather Reports


Display with metric or nautical units.
time (UTC)temp
F
wind
direction
speed
MPH
gust
MPH
rain 1hr
in
rain 24hr
in
rain mn
in
humidity
%
barometer
mb
20260904093507 58 290 2.0 7.0 0.00 0.00 0.00 98 1010.6
20260904092751 58 256 2.0 6.0 0.00 0.00 0.00 98 1010.6
20260904092250 57 294 1.0 3.0 0.00 0.00 0.00 98 1010.7
20260904091751 57 313 0.0 2.0 0.00 0.00 0.00 98 1010.6
20260904091251 57 314 0.0 2.0 0.00 0.00 0.00 97 1010.6
20260904090750 57 314 0.0 2.0 0.00 0.00 0.00 97 1010.5
20260904090250 57 315 0.0 3.0 0.00 0.00 0.00 97 1010.5
20260904085750 57 315 0.0 3.0 0.00 0.00 0.00 97 1010.4
20260904085251 58 251 1.0 3.0 0.00 0.00 0.00 97 1010.4
20260904084753 58 250 1.0 3.0 0.00 0.00 0.00 97 1010.4
20260904084251 58 251 1.0 7.0 0.00 0.00 0.00 97 1010.5
20260904083748 58 251 2.0 7.0 0.00 0.00 0.00 97 1010.4
20260904082746 59 328 2.0 8.0 0.00 0.00 0.00 97 1010.2
20260904082246 58 74 2.0 8.0 0.00 0.00 0.00 97 1010.4
20260904081746 59 238 2.0 7.0 0.00 0.00 0.00 97 1010.5
20260904081246 59 30 3.0 8.0 0.00 0.00 0.00 97 1010.4
20260904080747 59 25 2.0 10.0 0.00 0.00 0.00 97 1010.4
20260904080240 58 335 2.0 10.0 0.00 0.00 0.00 97 1010.4
20260904075731 58 309 2.0 8.0 0.00 0.00 0.00 97 1010.2
20260904075449 59 332 2.0 7.0 0.00 0.00 0.00 97 1010.2
20260904074719 59 310 2.0 6.0 0.00 0.00 0.00 97 1010.4
20260904074209 59 261 2.0 6.0 0.00 0.00 0.00 97 1010.4
20260904073703 58 0 2.0 6.0 0.00 0.00 0.00 97 1010.2
20260904073156 58 261 2.0 6.0 0.00 0.00 0.00 97 1010.4
20260904072654 58 228 1.0 4.0 0.00 0.00 0.00 97 1010.5
20260904072415 58 13 1.0 4.0 0.00 0.00 0.00 97 1010.4
20260904071652 58 246 1.0 4.0 0.00 0.00 0.00 97 1010.4
20260904071150 58 54 0.0 2.0 0.00 0.00 0.00 97 1010.2
20260904070648 58 54 0.0 3.0 0.00 0.00 0.00 96 1010.1
20260904070146 58 54 0.0 3.0 0.00 0.00 0.00 96 1010.0
20260904065645 58 55 1.0 3.0 0.00 0.01 0.00 96 1010.2
20260904065145 58 55 1.0 4.0 0.00 0.01 0.00 95 1010.2
20260904064644 59 55 1.0 4.0 0.00 0.01 0.00 95 1010.2
20260904064147 59 236 1.0 2.0 0.00 0.01 0.00 95 1010.4
20260904063644 59 236 1.0 3.0 0.00 0.01 0.00 95 1010.4
20260904063144 60 236 1.0 3.0 0.00 0.01 0.00 95 1010.4
20260904062907 60 218 1.0 3.0 0.00 0.01 0.00 94 1010.4
20260904062358 60 209 1.0 3.0 0.00 0.01 0.00 95 1010.4
20260904061640 60 224 1.0 3.0 0.00 0.01 0.00 94 1010.5
20260904061358 60 224 1.0 3.0 0.00 0.01 0.00 94 1010.6
20260904060631 61 225 1.0 3.0 0.00 0.01 0.00 93 1010.6
20260904060128 61 225 1.0 2.0 0.00 0.02 0.00 93 1010.7
20260904055850 62 246 1.0 9.0 0.00 0.02 0.00 92 1010.8
20260904055358 62 246 2.0 9.0 0.00 0.03 0.00 92 1010.7
20260904054628 62 351 3.0 8.0 0.00 0.03 0.00 91 1010.7
20260904054128 63 225 4.0 13.0 0.00 0.03 0.00 90 1010.6
20260904053629 63 239 4.0 13.0 0.00 0.03 0.00 90 1010.7
20260904053128 63 248 4.0 13.0 0.00 0.03 0.00 91 1010.6
20260904052628 62 247 3.0 12.0 0.00 0.04 0.00 91 1010.5
20260904052356 62 209 3.0 9.0 0.00 0.05 0.00 91 1010.5
20260904051628 62 251 3.0 10.0 0.00 0.07 0.00 91 1010.6
20260904051130 62 277 3.0 12.0 0.00 0.09 0.00 92 1010.6
20260904050853 62 215 3.0 12.0 0.00 0.10 0.00 93 1010.8
20260904050128 61 230 4.0 9.0 0.00 0.10 0.00 93 1010.9
20260904045628 61 267 4.0 10.0 0.00 0.11 0.00 93 1011.1
20260904045122 61 251 4.0 10.0 0.00 0.11 0.00 93 1011.1
20260904044833 62 248 3.0 9.0 0.00 0.11 0.00 93 1011.1
20260904044341 61 240 3.0 9.0 0.00 0.11 0.00 94 1011.2
20260904043610 61 248 3.0 8.0 0.00 0.11 0.00 94 1011.1
20260904043108 61 270 4.0 8.0 0.00 0.11 0.00 94 1011.2
20260904042608 61 255 4.0 8.0 0.00 0.11 0.00 94 1011.2
20260904042108 62 253 4.0 8.0 0.00 0.12 0.00 93 1011.2
20260904041609 62 267 4.0 8.0 0.00 0.12 0.00 93 1011.2
20260904041110 62 252 3.0 8.0 0.00 0.12 0.00 93 1011.2
20260904040829 62 246 4.0 8.0 0.00 0.12 0.00 93 1011.4
20260904040108 62 244 3.0 8.0 0.00 0.13 0.00 93 1011.3
20260904035829 62 247 3.0 9.0 0.00 0.13 0.13 94 1011.4
20260904035106 62 255 4.0 10.0 0.00 0.13 0.13 94 1011.3
20260904034606 61 306 4.0 11.0 0.00 0.13 0.13 94 1011.3
20260904034337 61 275 4.0 12.0 0.00 0.13 0.13 95 1011.4
20260904033606 61 237 4.0 12.0 0.00 0.14 0.13 95 1011.3
20260904033107 61 260 4.0 10.0 0.00 0.14 0.13 95 1011.4
20260904032601 61 248 3.0 7.0 0.00 0.14 0.13 95 1011.4
20260904032051 61 260 3.0 7.0 0.00 0.14 0.13 95 1011.5
20260904031545 60 251 3.0 8.0 0.00 0.14 0.13 95 1011.6
20260904031039 60 262 3.0 8.0 0.00 0.14 0.13 95 1011.6
20260904030754 61 267 4.0 9.0 0.00 0.14 0.13 95 1011.7
20260904030023 60 249 5.0 10.0 0.00 0.15 0.13 95 1011.5
20260904025517 60 221 4.0 10.0 0.00 0.15 0.13 95 1011.5
20260904025235 60 289 4.0 9.0 0.00 0.15 0.13 94 1011.4
20260904024501 61 243 3.0 6.0 0.00 0.15 0.13 94 1011.5
20260904023955 61 254 3.0 8.0 0.00 0.15 0.13 94 1011.5
20260904023445 61 250 3.0 8.0 0.00 0.15 0.13 94 1011.6
20260904022939 61 243 3.0 7.0 0.00 0.15 0.13 94 1011.6
20260904022433 61 264 3.0 7.0 0.00 0.15 0.13 94 1011.7
20260904021923 61 248 3.0 8.0 0.00 0.15 0.13 93 1011.7
20260904021417 62 260 3.0 8.0 0.00 0.15 0.13 94 1011.8
20260904020911 62 238 3.0 8.0 0.00 0.16 0.13 94 1011.9
20260904020401 62 263 4.0 8.0 0.00 0.16 0.13 94 1011.8
20260904020121 62 257 3.0 6.0 0.00 0.16 0.13 93 1011.8
20260904015609 62 231 3.0 8.0 0.00 0.16 0.13 93 1011.8
20260904015058 62 281 3.0 8.0 0.00 0.16 0.13 93 1011.9
20260904014601 62 294 3.0 7.0 0.00 0.16 0.13 93 1012.0
20260904013827 62 255 3.0 7.0 0.00 0.16 0.13 92 1012.0
20260904013316 62 267 3.0 7.0 0.00 0.16 0.13 92 1012.0
20260904012811 63 259 4.0 8.0 0.00 0.16 0.13 92 1012.0
20260904012306 63 249 4.0 8.0 0.00 0.16 0.13 92 1012.1
20260904011801 63 244 4.0 9.0 0.00 0.16 0.13 92 1011.9
20260904011514 62 243 4.0 9.0 0.00 0.16 0.13 93 1011.8
20260904010757 62 263 4.0 8.0 0.00 0.16 0.13 93 1011.8
20260904010256 62 251 4.0 8.0 0.00 0.16 0.13 93 1011.8
20260904005756 62 240 4.0 8.0 0.00 0.16 0.13 93 1011.8
20260904005256 62 257 3.0 9.0 0.00 0.16 0.13 93 1011.9
20260904005020 62 277 4.0 9.0 0.00 0.16 0.13 93 1011.9
20260904004254 62 248 3.0 9.0 0.00 0.16 0.13 92 1011.8
20260904003754 62 254 3.0 9.0 0.00 0.16 0.13 93 1011.8
20260904003255 62 246 3.0 8.0 0.00 0.16 0.13 93 1011.8
20260904002753 63 246 3.0 8.0 0.00 0.16 0.13 92 1011.9
20260904002254 63 259 3.0 8.0 0.00 0.16 0.13 92 1011.7
20260904001250 63 259 3.0 7.0 0.00 0.16 0.13 92 1011.6
20260904000748 63 258 4.0 9.0 0.00 0.16 0.13 91 1011.5
20260904000248 63 254 4.0 9.0 0.00 0.16 0.13 92 1011.5
20260903235742 63 259 3.0 8.0 0.00 0.16 0.13 91 1011.3
20260903235243 63 237 3.0 8.0 0.00 0.16 0.13 92 1011.2
20260903234745 63 269 3.0 7.0 0.00 0.16 0.13 93 1011.1
20260903234240 63 288 2.0 6.0 0.00 0.16 0.13 93 1010.9
20260903233744 63 250 2.0 4.0 0.00 0.16 0.13 93 1011.0
20260903233506 63 250 2.0 6.0 0.00 0.16 0.13 92 1011.0
20260903232740 63 242 3.0 7.0 0.00 0.16 0.13 91 1011.0
20260903232234 64 252 3.0 7.0 0.00 0.16 0.13 91 1011.1
20260903231956 64 257 3.0 5.0 0.00 0.16 0.13 91 1011.1
20260903231454 64 259 3.0 5.0 0.00 0.16 0.13 92 1011.2
20260903230739 64 249 3.0 4.0 0.00 0.16 0.13 91 1011.2
20260903230236 64 249 3.0 7.0 0.00 0.16 0.13 90 1011.1
20260903225735 65 252 3.0 7.0 0.00 0.16 0.13 89 1011.1
20260903225458 65 245 2.0 5.0 0.00 0.16 0.13 87 1011.1
20260903224734 66 244 2.0 8.0 0.00 0.16 0.13 87 1011.2
20260903224230 66 265 2.0 8.0 0.00 0.16 0.13 84 1011.3
20260903223730 67 252 2.0 5.0 0.00 0.16 0.13 84 1011.2
20260903223229 67 252 3.0 6.0 0.00 0.16 0.13 81 1011.3
20260903223002 69 257 3.0 9.0 0.00 0.16 0.13 79 1011.2
20260903222231 69 259 3.0 9.0 0.00 0.16 0.13 75 1011.2
20260903221952 70 239 4.0 11.0 0.00 0.16 0.13 73 1011.1
20260903221229 70 249 5.0 14.0 0.00 0.16 0.13 71 1011.2
20260903220731 71 230 5.0 14.0 0.00 0.16 0.13 73 1011.2
20260903220226 72 244 4.0 8.0 0.00 0.16 0.13 72 1011.2
20260903215723 71 252 4.0 10.0 0.00 0.16 0.13 73 1011.2
20260903214723 71 261 4.0 11.0 0.00 0.16 0.13 72 1011.0
20260903214227 73 209 5.0 14.0 0.00 0.16 0.13 69 1011.0
20260903213722 73 229 6.0 14.0 0.00 0.16 0.13 67 1011.1
20260903213222 73 250 6.0 15.0 0.00 0.16 0.13 66 1011.1
20260903212722 74 247 6.0 15.0 0.00 0.16 0.13 68 1011.2
20260903212222 73 243 7.0 17.0 0.00 0.16 0.13 68 1011.1
20260903211722 74 262 7.0 17.0 0.00 0.16 0.13 69 1011.2
20260903211221 74 242 7.0 17.0 0.00 0.16 0.13 68 1011.4
20260903210722 74 235 6.0 15.0 0.00 0.16 0.13 69 1011.3
20260903210449 74 244 5.0 11.0 0.00 0.16 0.13 67 1011.1
20260903205722 73 254 5.0 11.0 0.00 0.16 0.13 73 1011.5
20260903205221 71 276 5.0 9.0 0.00 0.16 0.13 79 1011.5
20260903204721 70 250 5.0 13.0 0.00 0.16 0.13 79 1011.3
20260903204456 71 244 4.0 13.0 0.00 0.16 0.13 75 1011.2
20260903203725 70 277 3.0 8.0 0.00 0.16 0.13 75 1011.2
20260903203226 70 238 4.0 8.0 0.00 0.16 0.13 79 1011.1
20260903202948 71 255 4.0 9.0 0.00 0.16 0.13 76 1011.1
20260903202224 71 244 5.0 13.0 0.00 0.16 0.13 75 1011.1
20260903201724 71 273 5.0 13.0 0.00 0.16 0.13 74 1011.1
20260903201222 71 241 5.0 14.0 0.00 0.16 0.13 74 1011.0
20260903200722 71 248 4.0 14.0 0.00 0.16 0.13 75 1011.1
20260903200222 71 218 4.0 9.0 0.00 0.16 0.13 77 1011.1
20260903195222 74 271 7.0 20.0 0.00 0.16 0.13 67 1011.1
20260903194723 74 236 7.0 20.0 0.00 0.16 0.13 66 1011.1
20260903194222 74 253 8.0 16.0 0.00 0.16 0.13 65 1011.1
20260903193721 75 238 7.0 15.0 0.00 0.16 0.13 62 1011.1
20260903193453 77 245 5.0 14.0 0.00 0.16 0.13 64 1011.1
20260903192721 77 327 6.0 17.0 0.00 0.16 0.13 68 1011.2
20260903192221 76 305 8.0 21.0 0.00 0.16 0.13 68 1011.2
20260903191719 76 5 6.0 21.0 0.00 0.16 0.13 63 1011.2
20260903191219 76 233 3.0 9.0 0.00 0.16 0.13 70 1011.1
20260903190717 74 317 3.0 9.0 0.00 0.16 0.13 73 1011.1
20260903190217 75 268 4.0 12.0 0.00 0.16 0.13 71 1011.0
20260903185715 76 69 7.0 18.0 0.00 0.16 0.13 71 1011.1
20260903185215 76 225 7.0 18.0 0.00 0.16 0.13 67 1011.1
20260903184717 76 272 7.0 18.0 0.00 0.16 0.13 66 1011.0
20260903184217 76 238 8.0 15.0 0.00 0.16 0.13 70 1011.1
20260903183716 75 229 8.0 15.0 0.00 0.16 0.13 68 1011.1
20260903183209 76 236 7.0 14.0 0.00 0.16 0.13 74 1011.0
20260903182700 75 238 8.0 17.0 0.00 0.16 0.13 72 1011.0
20260903181905 76 243 7.0 15.0 0.00 0.16 0.13 73 1011.1
20260903181136 75 252 5.0 14.0 0.00 0.16 0.13 74 1011.2
20260903180626 76 250 5.0 10.0 0.00 0.16 0.13 75 1011.2
20260903180120 74 315 5.0 12.0 0.00 0.16 0.13 79 1011.3
20260903175614 72 243 4.0 12.0 0.00 0.16 0.13 82 1011.4
20260903175326 72 227 4.0 11.0 0.00 0.16 0.13 79 1011.3
20260903174559 73 288 5.0 13.0 0.00 0.16 0.13 78 1011.3
20260903174053 74 251 7.0 17.0 0.00 0.16 0.13 78 1011.3
20260903173542 76 280 8.0 17.0 0.00 0.16 0.13 75 1011.3
20260903173036 75 257 7.0 15.0 0.00 0.16 0.13 73 1011.4
20260903172754 75 236 6.0 15.0 0.00 0.16 0.13 80 1011.4
20260903172020 76 250 6.0 12.0 0.00 0.16 0.13 80 1011.4
20260903171514 75 255 7.0 12.0 0.00 0.16 0.13 81 1011.4
20260903171008 74 251 7.0 12.0 0.00 0.16 0.13 85 1011.5
20260903170458 74 254 7.0 16.0 0.00 0.16 0.13 81 1011.4
20260903165952 74 235 7.0 16.0 0.00 0.16 0.13 86 1011.4
20260903165443 73 252 7.0 13.0 0.00 0.16 0.13 88 1011.5
20260903164934 73 223 7.0 16.0 0.00 0.16 0.13 87 1011.6
20260903164657 73 228 6.0 16.0 0.00 0.16 0.13 87 1011.5
20260903163923 72 240 5.0 11.0 0.00 0.16 0.13 93 1011.5
20260903163412 70 240 5.0 11.0 0.00 0.16 0.13 92 1011.7
20260903162906 70 232 5.0 9.0 0.00 0.16 0.13 92 1011.7
20260903162400 70 222 5.0 9.0 0.00 0.16 0.13 93 1011.7
20260903161850 70 230 5.0 11.0 0.00 0.16 0.13 93 1011.7
20260903161344 70 218 4.0 11.0 0.00 0.16 0.13 93 1011.8
20260903160839 70 231 4.0 8.0 0.00 0.16 0.13 94 1011.8
20260903160328 70 227 4.0 6.0 0.00 0.16 0.13 93 1011.8
20260903160053 70 202 3.0 8.0 0.00 0.16 0.13 92 1011.9
20260903155538 70 238 3.0 8.0 0.00 0.16 0.13 93 1011.9
20260903154806 69 196 3.0 6.0 0.00 0.16 0.13 94 1011.9
20260903154300 69 236 3.0 5.0 0.00 0.16 0.13 95 1012.0
20260903153754 68 239 3.0 8.0 0.00 0.16 0.13 94 1012.1
20260903153006 69 221 3.0 7.0 0.00 0.16 0.13 94 1012.1
20260903152455 69 239 3.0 6.0 0.00 0.16 0.13 95 1012.2
20260903151722 69 223 1.0 5.0 0.00 0.16 0.13 96 1012.2
20260903151215 69 233 1.0 3.0 0.00 0.16 0.13 95 1012.2
20260903150710 69 234 2.0 3.0 0.00 0.16 0.13 95 1012.2
20260903150425 69 234 2.0 5.0 0.00 0.16 0.13 95 1012.2
20260903145654 68 234 2.0 5.0 0.00 0.16 0.13 96 1012.2
20260903145148 68 265 2.0 5.0 0.00 0.16 0.13 97 1012.2
20260903144638 68 249 2.0 5.0 0.00 0.16 0.13 97 1012.2
20260903144402 68 247 2.0 4.0 0.00 0.16 0.13 97 1012.1
20260903143626 68 252 2.0 4.0 0.00 0.16 0.13 97 1012.0
20260903143116 68 316 2.0 7.0 0.00 0.16 0.13 98 1012.0
20260903142832 67 238 2.0 7.0 0.00 0.16 0.13 98 1012.0
20260903142103 67 257 2.0 7.0 0.00 0.16 0.13 98 1012.0
20260903141554 67 257 2.0 7.0 0.00 0.16 0.13 99 1012.1
20260903141048 67 257 3.0 8.0 0.00 0.16 0.13 99 1012.2
20260903140541 67 259 3.0 8.0 0.00 0.16 0.13 99 1012.4
20260903140032 67 227 4.0 9.0 0.00 0.16 0.13 99 1012.4
20260903135526 67 231 5.0 10.0 0.00 0.16 0.13 99 1012.4
20260903135019 67 252 3.0 8.0 0.00 0.16 0.13 99 1012.4
20260903134510 66 248 2.0 7.0 0.00 0.16 0.13 99 1012.4
20260903134004 66 211 2.0 5.0 0.00 0.16 0.13 99 1012.5
20260903133458 65 264 1.0 4.0 0.00 0.16 0.13 99 1012.4
20260903132441 64 240 0.0 2.0 0.00 0.16 0.13 99 1012.4
20260903131935 64 240 0.0 2.0 0.00 0.16 0.13 99 1012.4
20260903131642 63 240 0.0 2.0 0.00 0.16 0.13 99 1012.4
20260903130919 64 240 0.0 2.0 0.00 0.16 0.13 99 1012.4
20260903130638 63 240 0.0 2.0 0.00 0.16 0.13 99 1012.4
20260903125902 63 240 0.0 2.0 0.00 0.16 0.13 99 1012.4
20260903125356 64 241 1.0 3.0 0.00 0.16 0.13 99 1012.5
20260903125110 63 241 1.0 3.0 0.00 0.16 0.13 99 1012.4
20260903124341 63 241 1.0 3.0 0.00 0.16 0.13 99 1012.4
20260903124056 63 241 1.0 3.0 0.00 0.16 0.13 99 1012.4
20260903123329 63 241 1.0 3.0 0.00 0.16 0.13 99 1012.4
20260903122818 63 241 1.0 3.0 0.00 0.16 0.13 99 1012.5
20260903122313 62 242 1.0 3.0 0.00 0.16 0.13 99 1012.5
20260903121807 62 242 2.0 4.0 0.00 0.16 0.13 99 1012.4
20260903121256 62 242 2.0 4.0 0.00 0.16 0.13 99 1012.4
20260903120750 62 236 2.0 4.0 0.00 0.16 0.13 99 1012.5
20260903120512 61 236 2.0 4.0 0.00 0.16 0.13 99 1012.5
20260903115734 61 236 2.0 3.0 0.00 0.16 0.13 99 1012.5
20260903115228 61 236 2.0 3.0 0.00 0.16 0.13 99 1012.4
20260903114723 61 236 2.0 3.0 0.00 0.16 0.13 99 1012.4
20260903114223 61 236 1.0 3.0 0.00 0.16 0.13 99 1012.4
20260903113722 61 236 1.0 2.0 0.00 0.16 0.13 99 1012.5
20260903113223 61 236 1.0 2.0 0.00 0.16 0.13 99 1012.4
20260903112721 61 236 1.0 2.0 0.00 0.16 0.13 99 1012.5
20260903112220 61 236 0.0 2.0 0.00 0.16 0.13 99 1012.5
20260903111720 61 236 0.0 1.0 0.00 0.16 0.13 99 1012.5
20260903111222 61 236 0.0 1.0 0.00 0.16 0.13 99 1012.5
20260903110719 61 236 0.0 2.0 0.00 0.16 0.13 99 1012.5
20260903110440 61 236 0.0 2.0 0.00 0.16 0.13 99 1012.5
20260903105717 61 236 1.0 2.0 0.00 0.16 0.13 99 1012.4
20260903105217 61 236 1.0 2.0 0.00 0.16 0.13 99 1012.4
20260903104714 60 235 1.0 2.0 0.00 0.16 0.13 99 1012.4
20260903104205 60 235 1.0 2.0 0.00 0.16 0.13 99 1012.4
20260903103929 60 235 1.0 2.0 0.00 0.16 0.13 99 1012.4
20260903103205 60 235 1.0 2.0 0.00 0.16 0.13 99 1012.2
20260903102702 60 235 1.0 3.0 0.00 0.16 0.13 99 1012.2
20260903102203 60 235 1.0 3.0 0.00 0.16 0.13 99 1012.2
20260903101924 60 235 2.0 3.0 0.00 0.16 0.13 99 1012.4
20260903101202 60 235 2.0 4.0 0.00 0.16 0.13 99 1012.4
20260903100702 60 235 3.0 4.0 0.00 0.16 0.13 99 1012.4
20260903100204 60 235 3.0 5.0 0.00 0.16 0.13 99 1012.4
20260903095659 60 244 2.0 5.0 0.00 0.16 0.13 99 1012.5
20260903095200 60 244 2.0 4.0 0.00 0.16 0.13 99 1012.2
20260903094923 60 245 2.0 3.0 0.00 0.16 0.13 99 1012.2
20260903094158 60 246 1.0 3.0 0.00 0.16 0.13 99 1012.2
20260903093659 60 246 1.0 3.0 0.00 0.16 0.13 99 1012.1